DL6MAA-11 Weather Reports


time (UTC)temp
C
wind
direction
speed
KPH
gust
KPH
rain 1hr
cm
rain 24hr
cm
rain mn
cm
humidity
%
barometer
mb
20260903180703 21 360 0.0 0.0 0.00 0.00 0.00 53 1019.8
20260903180205 21 360 0.0 0.0 0.00 0.00 0.00 53 1019.8
20260903175710 21 147 0.0 0.0 0.00 0.00 0.00 52 1019.8
20260903175156 21 244 0.0 0.0 0.00 0.00 0.00 52 1019.8
20260903174659 22 219 0.0 0.0 0.00 0.00 0.00 52 1019.8
20260903174210 22 202 0.0 0.0 0.00 0.00 0.00 52 1019.8
20260903173713 22 225 0.0 0.0 0.00 0.00 0.00 52 1019.8
20260903173212 22 219 0.0 0.0 0.00 0.00 0.00 52 1019.8
20260903172711 22 360 0.0 0.0 0.00 0.00 0.00 52 1019.8
20260903172156 22 200 0.0 0.0 0.00 0.00 0.00 51 1019.8
20260903171706 22 203 0.0 0.0 0.00 0.00 0.00 51 1019.8
20260903171210 22 206 0.0 0.0 0.00 0.00 0.00 51 1019.8
20260903170655 22 245 0.0 0.0 0.00 0.00 0.00 50 1019.8
20260903170154 22 360 1.6 0.0 0.00 0.00 0.00 49 1019.8
20260903165659 22 256 1.6 0.0 0.00 0.00 0.00 49 1019.7
20260903165201 23 360 1.6 0.0 0.00 0.00 0.00 49 1019.7
20260903164705 23 360 1.6 0.0 0.00 0.00 0.00 49 1019.7
20260903164211 23 128 3.2 0.0 0.00 0.00 0.00 48 1019.7
20260903163713 23 360 3.2 0.0 0.00 0.00 0.00 48 1019.7
20260903163157 23 360 1.6 0.0 0.00 0.00 0.00 48 1019.7
20260903162700 23 360 1.6 0.0 0.00 0.00 0.00 48 1019.7
20260903162203 23 360 3.2 0.0 0.00 0.00 0.00 48 1019.7
20260903161655 23 288 4.8 0.0 0.00 0.00 0.00 48 1019.7
20260903161205 23 251 3.2 0.0 0.00 0.00 0.00 48 1019.7
20260903160700 23 233 3.2 0.0 0.00 0.00 0.00 48 1019.7
20260903160154 23 296 6.4 0.0 0.00 0.00 0.00 48 1019.7
20260903155703 23 250 8.0 0.0 0.00 0.00 0.00 47 1019.5
20260903155206 24 265 9.7 0.0 0.00 0.00 0.00 46 1019.5
20260903154709 24 360 9.7 0.0 0.00 0.00 0.00 46 1019.5
20260903154159 24 360 8.0 0.0 0.00 0.00 0.00 47 1019.5
20260903153708 24 229 6.4 0.0 0.00 0.00 0.00 46 1019.5
20260903153209 24 273 8.0 0.0 0.00 0.00 0.00 46 1019.5
20260903152654 24 360 11.3 0.0 0.00 0.00 0.00 47 1019.7
20260903152201 23 360 8.0 0.0 0.00 0.00 0.00 47 1019.7
20260903151711 23 236 6.4 0.0 0.00 0.00 0.00 48 1019.7
20260903151211 23 360 9.7 0.0 0.00 0.00 0.00 48 1019.4
20260903150702 23 234 11.3 0.0 0.00 0.00 0.00 47 1019.4
20260903150157 24 276 8.0 0.0 0.00 0.00 0.00 47 1019.4
20260903145651 24 219 6.4 0.0 0.00 0.00 0.00 45 1019.4
20260903145207 24 179 8.0 0.0 0.00 0.00 0.00 47 1019.4
20260903144703 24 283 4.8 0.0 0.00 0.00 0.00 46 1019.4
20260903144203 24 360 4.8 0.0 0.00 0.00 0.00 47 1019.6
20260903143706 23 230 8.0 0.0 0.00 0.00 0.00 47 1019.6
20260903143211 23 276 9.7 0.0 0.00 0.00 0.00 46 1019.6
20260903142659 23 360 9.7 0.0 0.00 0.00 0.00 47 1019.7
20260903142205 23 277 9.7 0.0 0.00 0.00 0.00 47 1019.7
20260903141653 23 360 8.0 0.0 0.00 0.00 0.00 47 1019.7
20260903141212 23 167 8.0 0.0 0.00 0.00 0.00 45 1019.8
20260903140700 23 280 8.0 0.0 0.00 0.00 0.00 45 1019.8
20260903140205 24 274 6.4 0.0 0.00 0.00 0.00 45 1019.8
20260903135711 23 207 8.0 0.0 0.00 0.00 0.00 45 1019.9
20260903135213 23 252 8.0 0.0 0.00 0.00 0.00 44 1019.9
20260903134656 23 360 6.4 0.0 0.00 0.00 0.00 46 1019.9
20260903134205 23 282 4.8 0.0 0.00 0.00 0.00 46 1019.8
20260903133704 23 360 4.8 0.0 0.00 0.00 0.00 49 1019.8
20260903133207 23 173 8.0 0.0 0.00 0.00 0.00 48 1019.8
20260903132656 23 281 11.3 0.0 0.00 0.00 0.00 50 1020.1
20260903132159 23 265 11.3 0.0 0.00 0.00 0.00 50 1020.1
20260903131710 23 163 9.7 0.0 0.00 0.00 0.00 49 1020.1
20260903131209 23 296 8.0 0.0 0.00 0.00 0.00 48 1020.0
20260903130714 23 360 4.8 0.0 0.00 0.00 0.00 49 1020.0
20260903130209 23 272 6.4 0.0 0.00 0.00 0.00 49 1020.0
20260903125708 23 203 11.3 0.0 0.00 0.00 0.00 50 1019.9
20260903125200 23 360 9.7 0.0 0.00 0.00 0.00 50 1019.9
20260903124655 23 267 6.4 0.0 0.00 0.00 0.00 50 1019.9
20260903124209 23 215 6.4 0.0 0.00 0.00 0.00 50 1019.9
20260903123703 23 289 9.7 0.0 0.00 0.00 0.00 50 1019.9
20260903123205 23 360 12.9 0.0 0.00 0.00 0.00 49 1019.9
20260903122708 23 281 14.5 0.0 0.00 0.00 0.00 47 1019.9
20260903122153 23 360 14.5 0.0 0.00 0.00 0.00 49 1019.9
20260903121705 23 277 16.1 0.0 0.00 0.00 0.00 48 1019.9
20260903121206 23 294 14.5 0.0 0.00 0.00 0.00 49 1020.0
20260903120708 23 283 14.5 0.0 0.00 0.00 0.00 47 1020.0
20260903120212 23 273 12.9 0.0 0.00 0.00 0.00 47 1020.0
20260903115657 23 246 11.3 0.0 0.00 0.00 0.00 49 1019.9
20260903115200 24 0.0 0.0 0.00 0.00 0.00 49 1019.9
20260903114701 24 360 8.0 0.0 0.00 0.00 0.00 48 1019.9
20260903114207 24 161 8.0 0.0 0.00 0.00 0.00 50 1020.1
20260903113712 24 360 9.7 0.0 0.00 0.00 0.00 48 1020.1
20260903113211 24 273 9.7 0.0 0.00 0.00 0.00 48 1020.1
20260903112656 24 279 11.3 0.0 0.00 0.00 0.00 48 1020.3
20260903112211 24 360 12.9 0.0 0.00 0.00 0.00 47 1020.3
20260903111704 24 279 12.9 0.0 0.00 0.00 0.00 48 1020.3
20260903111153 24 254 12.9 0.0 0.00 0.00 0.00 48 1020.1
20260903110659 23 291 12.9 0.0 0.00 0.00 0.00 49 1020.1
20260903110200 24 300 11.3 0.0 0.00 0.00 0.00 49 1020.1
20260903105659 24 95 8.0 0.0 0.00 0.00 0.00 51 1020.5
20260903105210 23 233 11.3 0.0 0.00 0.00 0.00 52 1020.5
20260903104657 23 360 12.9 0.0 0.00 0.00 0.00 52 1020.5
20260903104200 23 360 6.4 0.0 0.00 0.00 0.00 53 1020.4
20260903103712 23 157 6.4 0.0 0.00 0.00 0.00 53 1020.4
20260903103211 23 211 9.7 0.0 0.00 0.00 0.00 53 1020.4
20260903102714 23 360 12.9 0.0 0.00 0.00 0.00 53 1020.5
20260903102205 23 297 12.9 0.0 0.00 0.00 0.00 54 1020.5
20260903101656 23 288 11.3 0.0 0.00 0.00 0.00 52 1020.5
20260903101211 23 275 6.4 0.0 0.00 0.00 0.00 53 1020.4
20260903100659 23 297 4.8 0.0 0.00 0.00 0.00 53 1020.4
20260903100207 23 211 9.7 0.0 0.00 0.00 0.00 53 1020.4
20260903095700 22 360 12.9 0.0 0.00 0.00 0.00 54 1020.5
20260903095201 22 272 11.3 0.0 0.00 0.00 0.00 55 1020.5
20260903094708 22 360 8.0 0.0 0.00 0.00 0.00 54 1020.5
20260903094156 22 283 8.0 0.0 0.00 0.00 0.00 54 1020.6
20260903093703 22 259 8.0 0.0 0.00 0.00 0.00 54 1020.6
20260903093214 22 292 8.0 0.0 0.00 0.00 0.00 54 1020.6
20260903092658 22 308 9.7 0.0 0.00 0.00 0.00 54 1020.9
20260903092202 22 360 11.3 0.0 0.00 0.00 0.00 55 1020.9
20260903091703 21 286 11.3 0.0 0.00 0.00 0.00 56 1020.9
20260903091158 21 304 11.3 0.0 0.00 0.00 0.00 56 1020.9
20260903090702 21 275 12.9 0.0 0.00 0.00 0.00 56 1020.9
20260903090207 21 360 9.7 0.0 0.00 0.00 0.00 56 1020.9
20260903085659 21 360 6.4 0.0 0.00 0.00 0.00 57 1020.9
20260903085204 21 201 6.4 0.0 0.00 0.00 0.00 58 1020.9
20260903084710 21 281 9.7 0.0 0.00 0.00 0.00 57 1020.9
20260903084211 21 302 8.0 0.0 0.00 0.00 0.00 57 1020.9
20260903083700 21 275 6.4 0.0 0.00 0.00 0.00 58 1020.9
20260903083205 21 360 8.0 0.0 0.00 0.00 0.00 58 1020.9
20260903082714 20 310 8.0 0.0 0.00 0.00 0.00 59 1020.7
20260903082156 20 271 6.4 0.0 0.00 0.00 0.00 58 1020.7
20260903081658 20 318 6.4 0.0 0.00 0.00 0.00 60 1020.7
20260903081158 20 277 6.4 0.0 0.00 0.00 0.00 59 1020.6
20260903080702 20 360 3.2 0.0 0.00 0.00 0.00 61 1020.6
20260903080208 20 152 1.6 0.0 0.00 0.00 0.00 61 1020.6
20260903075706 20 360 0.0 0.0 0.00 0.00 0.00 62 1020.7
20260903075207 19 186 1.6 0.0 0.00 0.00 0.00 63 1020.7
20260903074655 18 253 1.6 0.0 0.00 0.00 0.00 67 1020.7
20260903074159 18 225 1.6 0.0 0.00 0.00 0.00 68 1020.8
20260903073658 17 171 1.6 0.0 0.00 0.00 0.00 69 1020.8
20260903073158 17 360 1.6 0.0 0.00 0.00 0.00 71 1020.8
20260903072706 17 178 1.6 0.0 0.00 0.00 0.00 72 1021.0
20260903072212 16 360 1.6 0.0 0.00 0.00 0.00 74 1021.0
20260903071715 16 252 0.0 0.0 0.00 0.00 0.00 76 1021.0
20260903071200 16 360 0.0 0.0 0.00 0.00 0.00 78 1021.3
20260903070658 16 198 0.0 0.0 0.00 0.00 0.00 79 1021.3
20260903070206 15 190 0.0 0.0 0.00 0.00 0.00 80 1021.3
20260903065707 15 208 1.6 0.0 0.00 0.00 0.00 81 1021.5
20260903065157 15 360 1.6 0.0 0.00 0.00 0.00 82 1021.5
20260903064659 14 232 0.0 0.0 0.00 0.00 0.00 83 1021.5
20260903064202 14 227 0.0 0.0 0.00 0.00 0.00 84 1021.5
20260903063711 13 213 0.0 0.0 0.00 0.00 0.00 84 1021.5
20260903063213 13 188 0.0 0.0 0.00 0.00 0.00 84 1021.5
20260903062653 13 183 0.0 0.0 0.00 0.00 0.00 83 1021.4
20260903062157 13 360 0.0 0.0 0.00 0.00 0.00 83 1021.4
20260903061653 13 183 0.0 0.0 0.00 0.00 0.00 83 1021.4
20260903061208 13 183 0.0 0.0 0.00 0.00 0.00 82 1021.3
20260903060701 12 360 0.0 0.0 0.00 0.00 0.00 82 1021.3
20260903060211 12 183 0.0 0.0 0.00 0.00 0.00 82 1021.3
20260903055657 12 184 0.0 0.0 0.00 0.00 0.00 82 1021.2
20260903055159 12 185 0.0 0.0 0.00 0.00 0.00 82 1021.2
20260903054707 12 186 0.0 0.0 0.00 0.00 0.00 82 1021.2
20260903054202 12 200 0.0 0.0 0.00 0.00 0.00 82 1021.2
20260903053653 12 239 0.0 0.0 0.00 0.00 0.00 81 1021.2
20260903053207 12 360 0.0 0.0 0.00 0.00 0.00 81 1021.2
20260903052653 12 239 0.0 0.0 0.00 0.00 0.00 81 1021.1
20260903052159 12 238 0.0 0.0 0.00 0.00 0.00 81 1021.1
20260903051708 12 239 0.0 0.0 0.00 0.00 0.00 81 1021.1
20260903051158 12 238 0.0 0.0 0.00 0.00 0.00 80 1021.0
20260903050706 12 239 0.0 0.0 0.00 0.00 0.00 80 1021.0
20260903050208 12 239 0.0 0.0 0.00 0.00 0.00 79 1021.0
20260903045656 12 239 0.0 0.0 0.00 0.00 0.00 79 1021.0
20260903045200 12 239 0.0 0.0 0.00 0.00 0.00 79 1021.0
20260903044701 12 238 0.0 0.0 0.00 0.00 0.00 79 1021.0
20260903044208 12 360 0.0 0.0 0.00 0.00 0.00 79 1020.9
20260903043713 12 239 0.0 0.0 0.00 0.00 0.00 79 1020.9
20260903043214 12 239 0.0 0.0 0.00 0.00 0.00 78 1020.9
20260903042702 12 239 0.0 0.0 0.00 0.00 0.00 78 1020.9
20260903042210 12 239 0.0 0.0 0.00 0.00 0.00 78 1020.9
20260903041711 12 239 0.0 0.0 0.00 0.00 0.00 78 1020.9
20260903041203 12 239 0.0 0.0 0.00 0.00 0.00 78 1020.5
20260903040711 12 238 0.0 0.0 0.00 0.00 0.00 77 1020.5
20260903040205 12 239 0.0 0.0 0.00 0.00 0.00 77 1020.5
20260903035700 12 239 0.0 0.0 0.00 0.00 0.00 77 1020.5
20260903035155 12 239 0.0 0.0 0.00 0.00 0.00 77 1020.5
20260903034703 12 360 0.0 0.0 0.00 0.00 0.00 77 1020.5
20260903034201 12 239 0.0 0.0 0.00 0.00 0.00 77 1020.5
20260903033716 12 360 0.0 0.0 0.00 0.00 0.00 77 1020.5
20260903033201 12 239 0.0 0.0 0.00 0.00 0.00 77 1020.5
20260903032655 12 239 0.0 0.0 0.00 0.00 0.00 77 1020.6
20260903032208 13 239 0.0 0.0 0.00 0.00 0.00 77 1020.6
20260903031703 13 239 0.0 0.0 0.00 0.00 0.00 77 1020.6
20260903031215 13 239 0.0 0.0 0.00 0.00 0.00 76 1020.3
20260903030658 13 239 0.0 0.0 0.00 0.00 0.00 76 1020.3
20260903030203 13 239 0.0 0.0 0.00 0.00 0.00 76 1020.3
20260903025704 13 239 0.0 0.0 0.00 0.00 0.00 76 1020.4
20260903025204 13 240 0.0 0.0 0.00 0.00 0.00 75 1020.4
20260903024703 13 239 0.0 0.0 0.00 0.00 0.00 75 1020.4
20260903024208 13 239 0.0 0.0 0.00 0.00 0.00 75 1020.5
20260903023702 13 239 0.0 0.0 0.00 0.00 0.00 75 1020.5
20260903023155 13 239 0.0 0.0 0.00 0.00 0.00 75 1020.5
20260903022709 13 239 0.0 0.0 0.00 0.00 0.00 75 1020.5
20260903022202 13 239 0.0 0.0 0.00 0.00 0.00 75 1020.5
20260903021713 13 239 0.0 0.0 0.00 0.00 0.00 75 1020.5
20260903021208 13 239 0.0 0.0 0.00 0.00 0.00 75 1020.1
20260903020702 13 239 0.0 0.0 0.00 0.00 0.00 76 1020.1
20260903020210 14 239 0.0 0.0 0.00 0.00 0.00 76 1020.1
20260903015713 14 238 0.0 0.0 0.00 0.00 0.00 76 1020.2
20260903015201 14 238 0.0 0.0 0.00 0.00 0.00 76 1020.2
20260903014709 14 238 0.0 0.0 0.00 0.00 0.00 76 1020.2
20260903014159 14 272 0.0 0.0 0.00 0.00 0.00 76 1020.3
20260903013701 14 272 0.0 0.0 0.00 0.00 0.00 76 1020.3
20260903013208 14 273 0.0 0.0 0.00 0.00 0.00 76 1020.3
20260903012704 14 275 0.0 0.0 0.00 0.00 0.00 76 1020.1
20260903012156 14 272 0.0 0.0 0.00 0.00 0.00 76 1020.1
20260903011710 14 272 0.0 0.0 0.00 0.00 0.00 76 1020.1
20260903011216 14 273 0.0 0.0 0.00 0.00 0.00 75 1020.2
20260903010659 14 272 0.0 0.0 0.00 0.00 0.00 75 1020.2
20260903010204 14 273 0.0 0.0 0.00 0.00 0.00 75 1020.2
20260903005709 14 273 0.0 0.0 0.00 0.00 0.00 75 1020.2
20260903005209 14 272 0.0 0.0 0.00 0.00 0.00 75 1020.2
20260903004712 14 273 0.0 0.0 0.00 0.00 0.00 74 1020.2
20260903004203 14 272 0.0 0.0 0.00 0.00 0.00 74 1020.3
20260903003707 14 273 0.0 0.0 0.00 0.00 0.00 74 1020.3
20260903003213 14 273 0.0 0.0 0.00 0.00 0.00 73 1020.3
20260903002657 14 273 0.0 0.0 0.00 0.00 0.00 74 1020.3
20260903002207 14 273 0.0 0.0 0.00 0.00 0.00 74 1020.3
20260903001701 14 360 0.0 0.0 0.00 0.00 0.00 74 1020.3
20260903001156 14 272 0.0 0.0 0.00 0.00 0.00 74 1020.3
20260903000707 14 273 0.0 0.0 0.00 0.00 0.00 74 1020.3
20260903000156 14 273 0.0 0.0 0.00 0.00 0.00 74 1020.3
20260902235702 14 273 0.0 0.0 0.00 0.00 0.00 74 1020.2
20260902235206 14 360 0.0 0.0 0.00 0.00 0.00 74 1020.2
20260902234658 14 360 0.0 0.0 0.00 0.00 0.00 73 1020.2
20260902234202 14 360 0.0 0.0 0.00 0.00 0.00 73 1020.2
20260902233707 14 276 0.0 0.0 0.00 0.00 0.00 72 1020.2
20260902233212 15 272 0.0 0.0 0.00 0.00 0.00 72 1020.2
20260902232715 15 273 0.0 0.0 0.00 0.00 0.00 72 1020.4
20260902232215 15 273 0.0 0.0 0.00 0.00 0.00 72 1020.4
20260902231701 15 273 0.0 0.0 0.00 0.00 0.00 72 1020.4
20260902231204 15 273 0.0 0.0 0.00 0.00 0.00 71 1020.4
20260902230702 15 360 0.0 0.0 0.00 0.00 0.00 71 1020.4
20260902230207 15 271 0.0 0.0 0.00 0.00 0.00 71 1020.4
20260902225702 15 273 0.0 0.0 0.00 0.00 0.00 71 1020.4
20260902225157 15 360 0.0 0.0 0.00 0.00 0.00 71 1020.4
20260902224711 15 271 0.0 0.0 0.00 0.00 0.00 71 1020.4
20260902224202 15 273 0.0 0.0 0.00 0.00 0.00 70 1020.4
20260902223705 15 281 0.0 0.0 0.00 0.00 0.00 72 1020.4
20260902223207 15 281 0.0 0.0 0.00 0.00 0.00 70 1020.4
20260902222705 15 281 0.0 0.0 0.00 0.00 0.00 70 1020.4
20260902222211 15 281 0.0 0.0 0.00 0.00 0.00 70 1020.4
20260902221713 15 281 0.0 0.0 0.00 0.00 0.00 70 1020.4
20260902221216 15 281 0.0 0.0 0.00 0.00 0.00 70 1020.4
20260902220700 16 281 0.0 0.0 0.00 0.00 0.00 70 1020.4
20260902220203 16 281 0.0 0.0 0.00 0.00 0.00 69 1020.4
20260902215709 16 281 0.0 0.0 0.00 0.00 0.00 69 1020.3
20260902215159 16 281 0.0 0.0 0.00 0.00 0.00 69 1020.3
20260902214707 16 360 0.0 0.0 0.00 0.00 0.00 68 1020.3
20260902214212 16 281 0.0 0.0 0.00 0.00 0.00 68 1020.1
20260902213656 16 281 0.0 0.0 0.00 0.00 0.00 67 1020.1
20260902213205 16 281 0.0 0.0 0.00 0.00 0.00 67 1020.1
20260902212714 16 281 0.0 0.0 0.00 0.00 0.00 67 1020.0
20260902212213 16 281 0.0 0.0 0.00 0.00 0.00 66 1020.0
20260902211701 17 283 0.0 0.0 0.00 0.00 0.00 66 1020.0
20260902211201 17 281 0.0 0.0 0.00 0.00 0.00 66 1020.1
20260902210709 17 360 0.0 0.0 0.00 0.00 0.00 65 1020.1
20260902210156 17 282 0.0 0.0 0.00 0.00 0.00 65 1020.1
20260902205717 17 281 0.0 0.0 0.00 0.00 0.00 65 1019.9
20260902205202 17 281 0.0 0.0 0.00 0.00 0.00 64 1019.9
20260902204711 17 281 0.0 0.0 0.00 0.00 0.00 64 1019.9
20260902204200 18 360 0.0 0.0 0.00 0.00 0.00 64 1019.6
20260902203659 18 281 0.0 0.0 0.00 0.00 0.00 63 1019.6
20260902203205 18 283 0.0 0.0 0.00 0.00 0.00 63 1019.6
20260902202702 18 0.0 0.0 0.00 0.00 0.00 63 1019.4
20260902202207 -17 0.0 0.0 0.00 0.00 0.00 1019.4
20260902201707 -17 0.0 0.0 0.00 0.00 0.00 1019.4
20260902201205 -17 0.0 0.0 0.00 0.00 0.00 1019.6
20260902200659 18 0.0 0.0 0.00 0.00 0.00 60 1019.6
20260902200208 18 281 0.0 0.0 0.00 0.00 0.00 60 1019.6
20260902195713 18 281 0.0 0.0 0.00 0.00 0.00 59 1019.5
20260902195204 19 360 0.0 0.0 0.00 0.00 0.00 59 1019.5
20260902194711 19 281 0.0 0.0 0.00 0.00 0.00 59 1019.5
20260902194210 19 281 0.0 0.0 0.00 0.00 0.00 59 1019.5
20260902193657 19 281 0.0 0.0 0.00 0.00 0.00 58 1019.5
20260902193158 19 281 0.0 0.0 0.00 0.00 0.00 58 1019.5
20260902192702 20 281 0.0 0.0 0.00 0.00 0.00 57 1019.4
20260902192159 20 281 0.0 0.0 0.00 0.00 0.00 57 1019.4
20260902191710 20 360 0.0 0.0 0.00 0.00 0.00 56 1019.4
20260902191201 20 281 0.0 0.0 0.00 0.00 0.00 56 1019.9
20260902190707 20 280 0.0 0.0 0.00 0.00 0.00 56 1019.9
20260902190158 20 280 0.0 0.0 0.00 0.00 0.00 55 1019.9
20260902185705 20 280 0.0 0.0 0.00 0.00 0.00 55 1019.6
20260902185209 20 280 0.0 0.0 0.00 0.00 0.00 54 1019.6
20260902184708 20 290 0.0 0.0 0.00 0.00 0.00 54 1019.6
20260902184213 20 290 1.6 0.0 0.00 0.00 0.00 54 1019.3
20260902183656 20 290 1.6 0.0 0.00 0.00 0.00 53 1019.3
20260902183204 21 322 0.0 0.0 0.00 0.00 0.00 53 1019.3
20260902182712 21 234 0.0 0.0 0.00 0.00 0.00 53 1019.2
20260902182206 21 232 0.0 0.0 0.00 0.00 0.00 52 1019.2
20260902181701 21 232 0.0 0.0 0.00 0.00 0.00 51 1019.2
20260902181214 21 232 0.0 0.0 0.00 0.00 0.00 51 1019.0